Time,TemperatureF,DewpointF,PressureIn,WindDirection,WindDirectionDegrees,WindSpeedMPH,WindSpeedGustMPH,Humidity,HourlyPrecipIn,Conditions,Clouds,dailyrainin,SoftwareType,DateUTC
2013-05-13 00:01:00,68.0,46.0,-100.00,SW,232,12.0,15.0,45,-99.99,,,-99.99,,2013-05-13 07:01:00,
2013-05-13 00:11:00,68.0,46.0,-100.00,SW,232,12.0,15.0,45,-99.99,,,-99.99,,2013-05-13 07:11:00,
2013-05-13 01:02:00,69.0,46.0,-100.00,WSW,239,13.0,18.0,43,-99.99,,,-99.99,,2013-05-13 08:02:00,
2013-05-13 01:11:00,69.0,46.0,-100.00,WSW,239,13.0,18.0,43,-99.99,,,-99.99,,2013-05-13 08:11:00,
2013-05-13 02:01:00,65.0,46.0,-100.00,SW,231,9.0,12.0,50,-99.99,,,-99.99,,2013-05-13 09:01:00,
2013-05-13 02:11:00,65.0,46.0,-100.00,SW,231,9.0,12.0,50,-99.99,,,-99.99,,2013-05-13 09:11:00,
2013-05-13 03:02:00,63.0,46.0,-100.00,SW,235,3.0,6.0,53,-99.99,,,-99.99,,2013-05-13 10:02:00,
2013-05-13 03:12:00,63.0,46.0,-100.00,SW,235,3.0,6.0,53,-99.99,,,-99.99,,2013-05-13 10:12:00,
2013-05-13 04:02:00,63.0,46.0,-100.00,West,272,3.0,6.0,53,-99.99,,,-99.99,,2013-05-13 11:02:00,
2013-05-13 04:12:00,63.0,46.0,-100.00,West,272,3.0,6.0,53,-99.99,,,-99.99,,2013-05-13 11:12:00,
2013-05-13 05:01:00,64.0,48.0,-100.00,WNW,288,7.0,9.0,55,-99.99,,,-99.99,,2013-05-13 12:01:00,
2013-05-13 05:11:00,64.0,48.0,-100.00,WNW,288,7.0,9.0,55,-99.99,,,-99.99,,2013-05-13 12:11:00,
2013-05-13 06:01:00,64.0,46.0,-100.00,WSW,252,6.0,7.0,51,-99.99,,,-99.99,,2013-05-13 13:01:00,
2013-05-13 06:11:00,64.0,46.0,-100.00,WSW,252,6.0,7.0,51,-99.99,,,-99.99,,2013-05-13 13:11:00,
2013-05-13 06:52:00,64.0,46.0,-100.00,West,269,3.0,6.0,51,-99.99,,,-99.99,,2013-05-13 13:52:00,
2013-05-13 07:02:00,64.0,46.0,-100.00,West,269,3.0,6.0,51,-99.99,,,-99.99,,2013-05-13 14:02:00,
2013-05-13 07:11:00,64.0,46.0,-100.00,West,269,3.0,6.0,51,-99.99,,,-99.99,,2013-05-13 14:11:00,
2013-05-13 09:03:00,66.0,48.0,-100.00,WNW,295,6.0,9.0,52,-99.99,,,-99.99,,2013-05-13 16:03:00,
2013-05-13 09:11:00,66.0,48.0,-100.00,WNW,295,6.0,9.0,52,-99.99,,,-99.99,,2013-05-13 16:11:00,
2013-05-13 10:02:00,68.0,48.0,-100.00,SE,137,3.0,8.0,48,-99.99,,,-99.99,,2013-05-13 17:02:00,
2013-05-13 10:12:00,68.0,48.0,-100.00,SE,137,3.0,8.0,48,-99.99,,,-99.99,,2013-05-13 17:12:00,
2013-05-13 11:03:00,69.0,47.0,-100.00,ESE,106,3.0,6.0,45,-99.99,,,-99.99,,2013-05-13 18:03:00,
2013-05-13 11:12:00,69.0,47.0,-100.00,ESE,106,3.0,6.0,45,-99.99,,,-99.99,,2013-05-13 18:12:00,
2013-05-13 12:01:00,70.0,47.0,-100.00,SW,232,8.0,13.0,43,-99.99,,,-99.99,,2013-05-13 19:01:00,
2013-05-13 12:11:00,70.0,47.0,-100.00,SW,232,8.0,13.0,43,-99.99,,,-99.99,,2013-05-13 19:11:00,
2013-05-13 13:01:00,69.0,45.0,-100.00,WSW,238,15.0,20.0,42,-99.99,,,-99.99,,2013-05-13 20:01:00,
2013-05-13 13:11:00,69.0,45.0,-100.00,WSW,238,15.0,20.0,42,-99.99,,,-99.99,,2013-05-13 20:11:00,
2013-05-13 14:02:00,61.0,49.0,-100.00,West,271,23.0,35.0,64,-99.99,,,-99.99,,2013-05-13 21:02:00,
2013-05-13 14:14:00,61.0,49.0,-100.00,West,271,23.0,35.0,64,-99.99,,,-99.99,,2013-05-13 21:14:00,
2013-05-13 15:02:00,60.0,49.0,-100.00,SSW,207,12.0,22.0,66,-99.99,,,-99.99,,2013-05-13 22:02:00,
2013-05-13 15:12:00,60.0,49.0,-100.00,SSW,207,12.0,22.0,66,-99.99,,,-99.99,,2013-05-13 22:12:00,
2013-05-13 17:02:00,73.0,41.0,-100.00,WSW,239,27.0,41.0,31,-99.99,,,-99.99,,2013-05-14 00:02:00,
2013-05-13 17:12:00,73.0,41.0,-100.00,WSW,239,27.0,41.0,31,-99.99,,,-99.99,,2013-05-14 00:12:00,
2013-05-13 18:01:00,73.0,38.0,-100.00,WSW,251,33.0,48.0,28,-99.99,,,-99.99,,2013-05-14 01:01:00,
2013-05-13 18:11:00,73.0,38.0,-100.00,WSW,251,33.0,48.0,28,-99.99,,,-99.99,,2013-05-14 01:11:00,
2013-05-13 19:02:00,70.0,38.0,-100.00,WSW,254,33.0,50.0,31,-99.99,,,-99.99,,2013-05-14 02:02:00,
2013-05-13 19:11:00,70.0,38.0,-100.00,WSW,254,33.0,50.0,31,-99.99,,,-99.99,,2013-05-14 02:11:00,
2013-05-13 20:01:00,67.0,35.0,-100.00,WSW,252,33.0,51.0,30,-99.99,,,-99.99,,2013-05-14 03:01:00,
2013-05-13 20:11:00,67.0,35.0,-100.00,WSW,252,33.0,51.0,30,-99.99,,,-99.99,,2013-05-14 03:11:00,
2013-05-13 22:01:00,60.0,38.0,-100.00,West,266,20.0,27.0,43,-99.99,,,-99.99,,2013-05-14 05:01:00,
2013-05-13 22:12:00,60.0,38.0,-100.00,West,266,20.0,27.0,43,-99.99,,,-99.99,,2013-05-14 05:12:00,
2013-05-13 23:01:00,54.0,37.0,-100.00,WNW,295,6.0,9.0,52,-99.99,,,-99.99,,2013-05-14 06:01:00,
2013-05-13 23:12:00,54.0,37.0,-100.00,WNW,295,6.0,9.0,52,-99.99,,,-99.99,,2013-05-14 06:12:00,